{"data":{"norad_id":65861,"intl_designator":"2025-223H","name":"STARLINK-35258","alt_names":[],"object_type":"PAYLOAD","status":"ACTIVE","operator":null,"country":"US","launch_date":"2025-10-03","launch_site_code":"AFWTR","launch_vehicle":null,"mission":null,"orbit_class":"UNKNOWN","rcs_meters":null,"size_class":null,"mass_kg":null,"dimensions":null,"purposes":["comms"],"wikipedia_slug":null,"has_3d_model":false,"image_url":null,"decayed_at":null,"tle_current":{"epoch":"2026-05-25T03:08:45.489120Z","epoch_age_seconds":57653,"freshness":"FRESH","line1":"1 65861U 25223H   26145.13108205  .00021649  00000+0  65002-3 0  9995","line2":"2 65861  53.1603 298.7940 0001475  79.2006 280.9163 15.34398996 35910","mean_motion":15.34398996,"eccentricity":0.0001475,"inclination_deg":53.1603,"raan_deg":298.794,"arg_perigee_deg":79.2006,"mean_anomaly_deg":280.9163,"bstar":0.00065002,"rev_number":3591,"period_min":93.847819488537,"perigee_km":461.69719993273,"apogee_km":463.7152486839,"semimajor_km":6840.8432243083,"source":"CELESTRAK","updated_at":"2026-05-25T13:38:20.972323Z"}}}